TimeICT,TemperatureF,Dew PointF,Humidity,Sea Level PressureIn,VisibilityMPH,Wind Direction,Wind SpeedMPH,Gust SpeedMPH,PrecipitationIn,Events,Conditions,WindDirDegrees,DateUTC
12:00 AM,75.2,71.6,89,29.83,5.6,Calm,Calm,-,N/A,,Mostly Cloudy,0,2013-07-09 17:00:00
12:30 AM,75.2,71.6,89,29.80,5.6,Calm,Calm,-,N/A,,Mostly Cloudy,0,2013-07-09 17:30:00
1:00 AM,75,74,95,29.75,6,Calm,Calm,,,,Mist,,2013-07-09 18:00:00
1:00 AM,75.2,71.6,89,29.80,5.6,Calm,Calm,-,N/A,,Mostly Cloudy,0,2013-07-09 18:00:00
1:30 AM,75.2,71.6,89,29.80,5.0,Calm,Calm,-,N/A,,Mostly Cloudy,0,2013-07-09 18:30:00
2:00 AM,75.2,71.6,89,29.77,5.0,Calm,Calm,-,N/A,,Mostly Cloudy,0,2013-07-09 19:00:00
2:30 AM,75.2,71.6,89,29.77,5.0,Calm,Calm,-,N/A,,Mostly Cloudy,0,2013-07-09 19:30:00
3:00 AM,75.2,71.6,89,29.77,5.0,Calm,Calm,-,N/A,,Mostly Cloudy,0,2013-07-09 20:00:00
3:30 AM,-9999,-9999,N/A,29.77,5.0,Calm,Calm,-,N/A,,Mostly Cloudy,0,2013-07-09 20:30:00
4:00 AM,75.2,73.4,94,29.77,5.0,Calm,Calm,-,N/A,,Mostly Cloudy,0,2013-07-09 21:00:00
4:30 AM,75.2,71.6,89,29.74,5.0,Calm,Calm,-,N/A,,Mostly Cloudy,0,2013-07-09 21:30:00
5:00 AM,75.2,71.6,89,29.77,5.0,Calm,Calm,-,N/A,,Mostly Cloudy,0,2013-07-09 22:00:00
5:30 AM,75.2,71.6,89,29.77,3.1,Variable,6.9,-,N/A,Rain,Rain,0,2013-07-09 22:30:00
6:30 AM,75.2,71.6,89,29.77,4.3,ENE,4.6,-,N/A,,Scattered Clouds,60,2013-07-09 23:30:00
7:00 AM,75,73,92,29.73,6,Calm,Calm,,,,Mist,,2013-07-10 00:00:00
7:00 AM,75.2,71.6,89,29.77,4.3,East,4.6,-,N/A,,Mostly Cloudy,80,2013-07-10 00:00:00
7:30 AM,75.2,73.4,94,29.80,4.3,East,3.5,-,N/A,Rain,Light Rain,100,2013-07-10 00:30:00
8:00 AM,77.0,73.4,89,29.80,5.0,East,4.6,-,N/A,,Mostly Cloudy,80,2013-07-10 01:00:00
8:30 AM,77.0,73.4,89,29.80,6.2,East,3.5,-,N/A,,Mostly Cloudy,90,2013-07-10 01:30:00
9:00 AM,78.8,73.4,83,29.83,6.2,Calm,Calm,-,N/A,,Mostly Cloudy,0,2013-07-10 02:00:00
9:30 AM,80.6,75.2,84,29.83,6.2,Calm,Calm,-,N/A,,Mostly Cloudy,0,2013-07-10 02:30:00
10:00 AM,84.2,75.2,74,29.83,6.2,ENE,5.8,-,N/A,,Mostly Cloudy,60,2013-07-10 03:00:00
10:30 AM,84.2,75.2,74,29.83,6.2,ESE,4.6,-,N/A,,Mostly Cloudy,120,2013-07-10 03:30:00
11:00 AM,84.2,75.2,74,29.83,6.2,ENE,5.8,-,N/A,,Mostly Cloudy,60,2013-07-10 04:00:00
11:30 AM,86.0,75.2,70,29.83,6.2,WSW,5.8,-,N/A,,Mostly Cloudy,240,2013-07-10 04:30:00
12:00 PM,86.0,75.2,70,29.80,6.2,SW,8.1,-,N/A,,Mostly Cloudy,230,2013-07-10 05:00:00
12:30 PM,86.0,75.2,70,29.80,6.2,SW,6.9,-,N/A,,Mostly Cloudy,230,2013-07-10 05:30:00
1:00 PM,89,73,51,29.78,6,WSW,5.8,,,,Scattered Clouds,250,2013-07-10 06:00:00
1:00 PM,87.8,75.2,66,29.80,6.2,West,8.1,-,N/A,,Mostly Cloudy,260,2013-07-10 06:00:00
1:30 PM,86.0,75.2,70,29.77,6.2,SW,8.1,-,N/A,,Mostly Cloudy,220,2013-07-10 06:30:00
2:00 PM,87.8,73.4,62,29.77,6.2,SSW,5.8,-,N/A,,Mostly Cloudy,210,2013-07-10 07:00:00
2:30 PM,86.0,75.2,70,29.77,6.2,WSW,8.1,-,N/A,,Mostly Cloudy,240,2013-07-10 07:30:00
3:00 PM,84.2,71.6,66,29.77,6.2,WSW,9.2,-,N/A,,Mostly Cloudy,250,2013-07-10 08:00:00
3:30 PM,80.6,75.2,84,29.74,5.0,West,17.3,-,N/A,Rain,Light Rain,280,2013-07-10 08:30:00
4:00 PM,80.6,75.2,84,29.74,6.2,West,13.8,-,N/A,,Mostly Cloudy,270,2013-07-10 09:00:00
4:30 PM,82.4,75.2,79,29.74,6.2,WNW,11.5,-,N/A,,Mostly Cloudy,290,2013-07-10 09:30:00
5:00 PM,84.2,75.2,74,29.74,6.2,West,9.2,-,N/A,,Mostly Cloudy,280,2013-07-10 10:00:00
5:30 PM,82.4,75.2,79,29.74,6.2,West,8.1,-,N/A,,Mostly Cloudy,270,2013-07-10 10:30:00
6:00 PM,82.4,75.2,79,29.74,6.2,West,9.2,-,N/A,,Mostly Cloudy,280,2013-07-10 11:00:00
6:30 PM,80.6,75.2,84,29.74,6.2,Calm,Calm,-,N/A,,Mostly Cloudy,0,2013-07-10 11:30:00
7:00 PM,83,76,73,29.73,6,Calm,Calm,,,,Scattered Clouds,,2013-07-10 12:00:00
7:00 PM,78.8,75.2,89,29.74,6.2,Calm,Calm,-,N/A,,Mostly Cloudy,0,2013-07-10 12:00:00
7:30 PM,78.8,75.2,89,29.74,6.2,Calm,Calm,-,N/A,,Mostly Cloudy,0,2013-07-10 12:30:00
8:00 PM,77.0,73.4,89,29.74,6.2,Calm,Calm,-,N/A,,Mostly Cloudy,0,2013-07-10 13:00:00
8:30 PM,77.0,73.4,89,29.77,6.2,Calm,Calm,-,N/A,,Mostly Cloudy,0,2013-07-10 13:30:00
9:00 PM,78.8,75.2,89,29.80,6.2,ENE,4.6,-,N/A,,Mostly Cloudy,60,2013-07-10 14:00:00
9:30 PM,78.8,73.4,83,29.80,6.2,Calm,Calm,-,N/A,,Mostly Cloudy,0,2013-07-10 14:30:00
10:00 PM,77.0,73.4,89,29.80,6.2,Calm,Calm,-,N/A,,Mostly Cloudy,0,2013-07-10 15:00:00
10:30 PM,77.0,73.4,89,29.83,6.2,Calm,Calm,-,N/A,,Mostly Cloudy,0,2013-07-10 15:30:00
11:00 PM,77.0,73.4,89,29.83,6.2,Calm,Calm,-,N/A,,Mostly Cloudy,0,2013-07-10 16:00:00
11:30 PM,77.0,73.4,89,29.83,6.2,Calm,Calm,-,N/A,,Mostly Cloudy,0,2013-07-10 16:30:00